TIANLIAN 2-01

Last updated on Fri Dec 19 2025 00:02:52 GMT+0000 (Coordinated Universal Time)

1 44076U 19017A 25352.64053514 -.00000082 00000+0 00000+0 0 9993 2 44076 0.0788 68.6945 0004251 190.5459 135.8694 1.00272412 24831
UTC large
Height (km)
Speed (km/s)
/
Latitude / Longitude
Inclination (degrees)
Orbital Period (minutes)
Azimuth
Elevation
Range (km)
Doppler Factor

Next 0 passes for location: London (51.5072 / 0.1276)

Sorry there are no passes over London.